Location: Brabourne
(51.1333°N, 1.0000°E)
Time: 20:55:35
(UTC+00:00)

MOZ.5/SAFIR/RUBIN 5/SL-8 - Pass Details

Date: 20 June 2021
Orbit: 677 x 706 km, 98.1° (Epoch: 01 August)

Event Time Altitude Azimuth Distance (km) Brightness Sun altitude
Exits shadow 01:38:05 17° 194° (SSW) 1,722 5.2 -12.2°
Maximum altitude 01:41:26 45° 262° (W) 955 4.3 -12.0°
Drops below altitude 10° 01:46:03 10° 335° (NNW) 2,186 6.9 -11.7°
Sets 01:48:25 0° 342° (NNW) 3,111 7.9 -11.5°
